Theta_e
316 316 316 316 317 317 317 318 318 318 319 319 319 319 319 319 318 313 307 314 319 331 327 313 313 310 310 306 307 307 301 297 297 298 299 305 302 307 309 306 308 310 310 313 316
315 315 316 316 316 317 317 317 318 318 318 318 320 319 319 319 311 309 322 331 331 330 315 310 307 309 307 306 306 303 299 297 301 302 300 302 302 303 303 304 305 307 311 313 315
315 315 315 315 316 316 317 317 317 318 318 318 319 320 318 317 304 304 332 331 330 323 316 313 308 307 304 304 303 301 299 300 300 302 303 301 301 304 302 300 304 304 307 311 313
315 315 315 315 316 316 316 317 317 318 318 318 318 321 319 312 294 307 336 333 331 319 310 306 305 302 299 297 301 295 301 301 301 302 302 300 303 301 301 302 306 308 310 311 311
315 314 314 314 315 315 316 316 317 317 317 317 318 321 311 303 302 309 333 328 318 311 305 303 301 300 296 298 299 298 299 301 302 302 302 302 299 299 300 304 306 308 310 309 309
315 314 314 314 315 315 316 316 316 316 316 317 318 320 305 298 308 309 316 313 311 306 304 304 301 302 300 298 298 300 300 300 301 301 301 298 298 299 301 304 304 306 307 308 307
315 314 313 313 314 315 316 316 315 316 317 317 319 317 304 302 308 308 311 307 308 306 303 304 304 301 300 297 301 300 295 297 298 299 297 298 295 296 301 303 302 304 306 307 307
315 314 313 313 314 315 315 315 315 318 318 319 320 313 302 309 309 307 308 307 308 307 305 305 305 303 299 300 297 294 294 290 296 297 298 296 291 298 302 301 300 302 304 305 305
315 314 313 313 314 314 314 314 318 320 320 321 315 306 300 312 306 308 308 305 306 306 306 304 303 298 298 294 293 292 288 289 291 297 296 295 292 298 301 301 300 302 302 303 304
315 314 313 313 313 313 313 314 320 317 318 318 310 302 304 301 306 306 308 306 303 303 302 301 298 296 296 293 286 288 288 290 290 294 295 293 294 298 301 300 300 301 301 302 302
315 314 313 313 313 312 308 306 305 304 306 301 302 301 303 307 307 305 306 304 303 301 296 296 295 291 293 293 293 291 289 289 293 296 294 294 294 296 299 299 299 300 300 301 302
315 314 313 312 312 312 306 304 302 303 299 304 304 304 306 308 300 305 309 302 299 295 295 294 291 294 295 294 292 292 290 290 293 294 294 294 293 296 298 299 302 305 306 307 308
314 313 312 311 311 308 304 303 305 307 300 302 305 304 302 303 299 302 305 302 297 294 293 291 292 295 293 292 291 291 290 290 289 294 295 292 291 293 297 302 304 304 305 305 306
313 313 311 310 307 305 303 306 306 309 296 296 301 300 304 301 299 305 305 301 298 293 293 292 294 293 292 291 292 288 293 292 291 290 286 293 284 292 295 298 300 301 301 302 304
313 313 310 309 305 303 305 307 309 309 285 294 296 303 304 301 301 301 305 301 294 294 294 291 293 292 290 291 294 291 295 293 292 289 288 288 286 290 296 295 298 300 301 301 302
313 312 309 307 305 306 307 308 310 295 285 291 295 294 297 299 299 300 301 302 300 295 294 294 297 294 293 295 295 295 293 291 289 288 284 286 287 288 292 294 296 298 299 299 300
312 310 306 305 303 306 307 308 295 287 293 290 290 293 295 293 295 296 294 295 292 287 288 292 293 294 296 293 295 294 292 285 284 284 283 288 287 290 295 295 296 296 297 298 299
310 306 306 308 307 307 307 300 289 290 290 293 292 294 292 293 293 293 292 291 295 292 289 286 285 292 295 293 290 291 291 285 277 280 283 290 284 291 299 297 297 298 298 298 298
305 304 307 311 309 307 303 292 291 291 293 291 291 288 289 292 292 291 291 291 294 295 288 287 287 295 296 296 295 291 289 293 285 286 281 287 289 295 298 296 296 297 298 297 298
300 300 305 306 307 305 298 292 292 293 294 293 288 290 286 288 289 290 289 295 294 297 298 292 285 293 294 296 297 293 296 287 288 279 278 285 286 288 293 292 293 294 295 296 298
299 299 306 305 307 301 293 292 293 295 296 293 291 289 289 288 290 289 289 293 297 296 297 295 290 289 293 291 290 291 291 290 288 286 281 280 286 295 293 292 292 293 295 296 297
297 297 304 303 297 293 293 293 295 295 296 294 294 293 291 291 290 289 289 293 299 298 293 296 292 286 288 294 296 294 291 290 283 283 286 285 284 297 296 295 295 294 296 296 297
301 295 305 302 292 291 293 294 296 295 294 294 293 294 294 292 289 290 292 297 299 297 295 296 290 284 287 291 294 291 293 292 291 288 283 280 286 298 298 296 295 294 294 295 296
297 293 299 298 294 293 291 291 291 297 295 295 294 295 292 290 292 290 290 295 298 298 300 299 293 288 285 288 291 287 291 292 289 284 285 285 288 293 294 293 292 294 294 295 295
293 293 295 293 293 292 293 292 291 292 297 296 292 293 292 289 289 289 291 292 295 297 299 298 289 292 292 291 291 290 290 291 289 289 284 287 288 292 294 292 294 294 294 295 294
297 291 293 292 291 291 292 292 291 293 295 292 291 293 293 291 292 288 291 291 291 297 297 297 290 292 289 292 292 290 291 291 290 289 289 290 289 295 296 296 295 294 293 293 293
299 297 293 293 291 290 292 293 292 295 295 296 294 292 291 293 296 297 296 296 295 296 296 295 292 287 285 290 289 285 289 290 290 292 291 285 292 295 292 292 292 293 294 292 293
Wind_Speed
20 19 18 17 15 14 14 13 12 11 10 9 9 9 9 10 5 0 9 4 4 6 3 1 5 3 2 4 3 1 2 2 1 3 8 13 13 11 10 13 14 10 19 22 22
20 19 18 16 16 15 14 13 13 12 10 9 9 8 7 8 3 13 4 3 4 8 5 9 9 4 4 4 4 2 0 2 0 6 9 13 15 16 13 17 16 18 19 21 20
21 20 18 17 16 15 14 14 12 11 10 8 9 8 6 5 3 7 2 4 3 4 4 1 3 3 7 3 5 2 1 0 3 5 10 13 16 12 14 14 17 21 20 21 19
22 21 19 18 17 15 15 14 14 12 9 7 8 8 7 2 5 3 1 3 3 3 3 5 7 3 3 4 1 1 1 2 4 9 10 14 12 13 11 16 16 18 16 18 21
22 22 20 18 17 16 16 15 13 12 9 5 5 7 3 7 4 1 2 3 1 2 6 4 9 3 3 1 1 2 1 3 7 11 8 12 12 13 14 14 15 15 15 18 19
21 22 21 19 18 17 15 14 12 11 8 4 5 7 2 11 1 1 2 1 3 4 5 6 4 2 3 3 2 2 6 8 6 6 10 10 17 9 11 18 17 16 16 17 19
21 21 21 19 18 17 16 14 12 9 5 2 3 2 3 6 0 2 2 1 0 1 3 3 3 3 1 2 3 4 8 6 5 7 8 7 14 14 15 16 20 18 18 17 19
22 22 22 21 18 16 16 15 12 5 2 3 1 1 3 1 1 1 0 1 1 3 3 4 5 6 4 4 2 2 1 9 5 14 7 6 17 18 18 19 21 20 19 19 20
23 23 23 22 20 18 15 11 3 6 5 3 0 2 4 2 1 1 1 2 4 2 5 6 4 4 2 5 1 2 10 16 10 6 11 9 20 16 21 21 21 21 21 20 22
24 24 23 23 21 18 15 1 6 4 2 2 1 2 1 1 3 1 1 2 2 3 2 5 4 2 3 6 7 15 15 8 15 11 15 17 21 20 19 20 21 22 20 21 21
24 25 24 23 21 15 5 1 1 2 2 1 1 0 3 4 2 5 3 2 1 2 5 3 2 3 6 5 8 9 10 14 15 13 15 21 23 23 17 15 16 18 19 20 20
24 25 25 23 19 15 2 3 2 3 2 2 2 4 3 2 2 7 4 4 2 6 0 1 1 2 6 2 1 5 11 14 9 7 16 19 27 18 8 9 11 15 17 18 19
24 25 24 22 19 3 3 2 4 3 1 2 2 0 1 1 3 6 8 3 4 1 1 3 4 3 2 3 6 7 9 13 18 20 16 10 14 1 4 7 12 15 16 17 19
24 24 24 23 0 2 2 3 4 2 1 3 4 2 3 1 4 3 5 2 0 4 1 0 2 3 2 3 8 10 4 14 19 16 9 7 9 6 6 9 14 16 19 19 21
25 24 21 9 1 1 2 6 1 2 4 4 3 2 4 2 2 7 4 2 1 3 2 2 4 4 1 1 6 8 14 16 16 11 8 1 7 4 9 8 15 18 21 21 21
27 25 16 1 2 1 4 1 1 2 6 4 2 2 2 5 3 3 6 5 1 1 0 3 2 2 1 6 3 11 11 2 3 2 3 3 6 10 5 6 13 19 22 21 23
29 26 7 1 1 3 2 1 2 5 1 4 2 2 2 1 1 4 3 6 5 5 6 5 1 1 1 7 1 13 10 5 3 2 4 1 11 9 1 6 11 15 19 20 20
31 19 3 3 1 4 0 1 5 2 3 3 2 3 2 1 2 2 2 2 3 1 2 5 4 1 2 4 5 4 5 3 6 5 12 15 7 3 9 4 8 13 16 18 20
24 4 2 1 3 3 2 3 4 5 5 7 4 3 3 2 2 1 2 4 3 2 3 4 4 2 7 2 3 3 2 2 4 8 7 4 5 8 7 6 14 18 20 21 21
8 5 3 4 6 2 2 5 4 3 5 4 6 4 5 4 2 1 3 5 4 6 0 3 6 1 1 2 3 3 2 3 1 6 7 6 14 10 5 12 14 18 19 21 20
3 5 2 3 2 2 5 6 5 5 6 6 7 6 5 5 5 4 3 4 6 8 4 4 4 2 7 4 3 2 3 2 3 4 5 9 6 3 1 7 13 16 18 20 20
4 4 2 2 3 1 4 6 1 4 5 3 4 6 7 9 6 5 7 5 9 10 6 7 4 5 8 11 9 8 5 4 3 3 6 8 14 8 2 6 13 16 18 19 19
6 5 1 2 6 5 3 4 4 5 6 7 9 6 4 7 2 7 5 3 9 9 7 8 4 5 3 3 3 5 8 8 7 6 8 6 8 8 8 16 14 16 19 18 18
3 5 3 1 1 3 4 4 4 4 5 5 4 5 5 6 5 3 6 4 8 9 9 9 7 9 8 9 8 13 17 14 9 6 13 18 28 24 21 17 17 20 18 18 18
3 4 2 4 3 2 2 1 4 4 5 6 4 10 9 6 5 7 7 6 8 6 7 9 8 14 18 19 18 20 21 18 19 18 13 20 22 23 21 13 18 17 17 19 20
3 2 1 5 3 4 5 6 8 8 7 6 8 9 11 8 10 9 7 5 8 6 8 6 5 6 9 16 18 21 19 18 20 19 17 19 23 6 11 15 18 17 17 18 19
1 1 1 3 4 4 6 8 8 6 7 6 8 7 9 16 13 11 8 6 7 8 10 7 5 3 7 4 14 14 7 8 5 7 10 12 16 15 15 15 18 18 16 16 19
Wind_Direction
1 358 355 352 348 345 343 343 344 340 347 348 346 347 343 341 311 152 47 5 349 330 291 177 47 48 72 83 58 160 142 182 329 359 313 326 329 336 320 299 317 295 311 309 316
359 356 353 350 345 342 340 338 339 336 338 342 338 345 348 354 22 56 356 66 27 356 32 29 25 33 70 48 46 41 200 140 59 311 317 318 321 320 315 315 309 303 303 307 317
358 355 352 348 344 339 337 333 334 331 328 335 325 334 338 324 58 29 66 113 85 53 74 40 31 47 60 55 26 76 60 157 291 319 334 319 311 322 313 312 323 314 308 308 313
356 354 351 348 342 337 334 331 329 325 324 325 315 323 322 279 76 283 84 101 31 16 63 48 27 71 72 78 68 262 220 275 313 317 312 307 316 301 308 307 306 307 304 306 307
353 352 349 346 341 336 331 329 326 320 317 318 307 321 243 80 89 283 97 48 5 20 43 47 47 74 56 113 343 155 304 262 298 295 297 293 293 307 294 310 312 305 301 308 309
348 349 347 344 340 336 329 325 321 318 311 313 316 323 79 83 289 249 128 36 40 48 54 39 38 48 90 3 8 318 286 297 293 294 297 301 310 303 300 313 312 307 304 306 307
347 344 344 343 339 335 327 324 317 312 295 249 282 352 71 74 354 168 178 60 40 45 61 49 87 59 33 2 341 323 309 318 269 337 303 326 293 299 309 316 314 307 309 309 308
344 343 341 342 338 333 328 322 311 301 156 153 255 307 85 244 259 200 263 66 108 69 66 54 101 88 22 320 323 336 283 333 338 311 298 326 297 307 315 318 307 305 302 299 302
342 341 338 339 337 333 327 325 333 106 112 132 238 348 113 308 50 75 360 8 334 46 42 75 65 60 62 360 297 46 315 313 318 281 311 304 298 313 306 304 302 300 299 295 297
342 340 337 335 337 333 328 56 114 122 110 214 249 205 340 53 305 25 77 52 26 337 36 38 57 115 42 359 336 308 317 303 310 310 312 299 293 304 304 298 299 305 305 301 299
341 339 337 335 332 335 335 153 235 200 45 306 123 150 297 309 36 41 13 347 50 57 343 47 314 95 339 296 282 290 285 302 304 307 319 303 301 307 312 306 317 331 330 317 306
341 337 337 333 329 324 269 67 61 23 293 180 236 272 261 293 74 22 5 5 330 327 104 306 171 116 332 309 355 312 308 314 299 301 313 307 298 311 319 7 18 7 360 355 345
341 339 338 332 321 341 29 32 310 195 274 268 210 124 63 224 81 28 10 337 289 303 1 275 100 338 325 136 347 321 300 314 300 315 291 299 289 67 55 25 23 11 356 353 347
339 341 341 330 285 329 90 345 308 257 275 193 171 96 32 97 98 30 15 304 323 349 41 240 102 353 336 162 348 314 277 298 303 321 313 15 292 310 354 353 17 7 359 352 346
336 339 340 350 328 160 350 326 163 222 264 117 110 30 51 72 360 29 13 27 52 320 255 66 330 353 283 345 327 299 310 290 300 287 290 77 254 320 348 354 3 356 354 354 348
333 334 336 188 260 290 317 303 220 199 242 166 76 56 90 26 47 16 357 30 44 70 142 316 332 221 309 302 304 319 287 309 190 218 267 59 325 294 346 359 350 349 353 355 345
332 327 308 187 46 349 305 107 188 228 109 161 142 87 131 33 121 14 52 43 37 345 2 325 113 148 231 314 346 350 350 350 325 313 285 146 303 278 24 47 7 348 346 346 342
332 320 193 233 279 341 359 153 225 156 195 122 132 124 182 34 129 32 78 97 83 81 316 351 160 360 28 332 321 354 349 34 304 299 301 296 241 333 147 77 11 3 351 344 344
325 326 271 196 167 178 145 219 241 199 157 160 132 155 171 219 5 352 163 209 183 197 21 328 258 272 329 324 273 106 305 356 248 263 274 236 258 187 187 343 360 354 349 351 343
325 321 254 332 154 105 178 241 239 213 145 166 197 182 184 187 206 226 210 177 186 192 322 177 289 256 300 225 102 287 68 247 156 293 286 259 284 261 283 343 339 347 343 341 338
331 320 73 117 173 132 222 229 229 221 171 184 193 166 191 181 201 204 203 182 202 184 181 169 215 238 306 196 263 201 199 170 245 247 285 301 294 125 350 335 333 335 335 336 334
336 294 63 250 212 221 202 196 232 204 191 193 168 190 191 177 198 218 213 231 185 154 187 195 192 275 283 309 270 243 241 179 245 243 241 285 283 124 91 345 339 335 327 331 328
314 273 350 191 231 215 222 225 236 197 199 197 199 196 174 178 175 209 195 228 169 173 185 167 190 297 252 156 149 214 212 226 244 250 231 266 273 173 261 347 338 327 327 325 320
276 294 271 68 7 204 183 209 226 229 217 186 174 140 152 191 229 214 217 232 195 205 179 176 203 218 250 287 294 276 272 264 234 237 275 255 282 298 324 331 327 335 328 322 321
193 248 328 289 197 183 254 221 205 210 196 186 197 207 178 187 197 224 222 260 229 215 184 199 238 235 247 258 259 259 273 269 251 251 251 286 288 301 318 320 322 322 327 323 330
275 269 357 294 258 216 194 217 224 228 199 201 217 205 196 191 190 191 203 213 244 174 179 187 252 245 265 262 264 271 269 264 262 261 259 263 274 304 311 312 317 318 323 324 325
358 278 45 281 268 216 221 223 224 212 232 232 206 204 214 230 232 244 236 261 239 195 190 186 222 239 270 339 300 277 259 213 203 229 245 263 285 310 307 313 315 314 314 320 317